Milwaukee General Mitchell International Airport (MKE)


Airport Diagram
Current Weather/Forecast (VFR Conditions)
METAR KMKE 260052Z 34008KT 10SM BKN250 29/12 A2992 RMK AO2 SLP124 T02940117
TAF KMKE 252325Z 2600/2706 30007KT P6SM BKN250 FM260200 28004KT P6SM SCT250 FM261600 27007KT P6SM FEW250 FM270200 25005KT P6SM FEW250

All Charts
General
Chart Name Download
AIRPORT DIAGRAM
TAKEOFF MINIMUMS
HOT SPOT

Departures
Chart Name Download
ACCRA FIVE (RNAV)
MITCHELL SIX
UECKR SIX (RNAV)

Arrivals
Chart Name Download
GOPAC TWO (RNAV)

Approaches
Chart Name Download
ILS OR LOC RWY 01L
ILS OR LOC RWY 07R
ILS OR LOC RWY 19R
ILS RWY 01L (CAT II - III)
RNAV (RNP) Y RWY 07R
RNAV (RNP) Y RWY 25L
RNAV (GPS) RWY 01L
RNAV (GPS) RWY 01R
RNAV (GPS) RWY 07L
RNAV (GPS) RWY 13
RNAV (GPS) RWY 19L
RNAV (GPS) RWY 19R
RNAV (GPS) RWY 25R
RNAV (GPS) RWY 31
RNAV (GPS) Z RWY 07R
RNAV (GPS) Z RWY 25L
LOC RWY 25L